Stations météo

Publicité
Colmar, France (7197): Température de l'air & dewpoint: 19.05.2017 08:00:00 - 25.05.2017 08:00:00 (CEST)Colmar, France (7197): Température de l'air 5cm: 19.05.2017 08:00:00 - 25.05.2017 08:00:00 (CEST)Colmar, France (7197): Température de l'air -20cm & Température de l'air -100cm: 19.05.2017 08:00:00 - 25.05.2017 08:00:00 (CEST)Colmar, France (7197): Vitesse du vent & gusts: 19.05.2017 08:00:00 - 25.05.2017 08:00:00 (CEST)Colmar, France (7197): Direction du vent: 19.05.2017 08:00:00 - 25.05.2017 08:00:00 (CEST)Colmar, France (7197): reduced air pressure: 19.05.2017 08:00:00 - 25.05.2017 08:00:00 (CEST)Colmar, France (7197): visibility: 19.05.2017 08:00:00 - 25.05.2017 08:00:00 (CEST)Colmar, France (7197): Ensoleillement: 19.05.2017 08:00:00 - 25.05.2017 08:00:00 (CEST)Colmar, France (7197): Quantités de précipitations: 19.05.2017 08:00:00 - 25.05.2017 08:00:00 (CEST)
Date & Time tt [°C] td [°C] tt 5cm [°C] tt -20cm [°C] tt -100cm [°C] ff [km/h] ff [knt] fx [km/h] fx [knt] dd ppp [hPa] vv [km] sd [min] rr [mm]
25.05.2017 08:00:00 17,4 12,3 14,5 20,3 16,0 11 6 19 11 N 1021,7 20 40 0,0
25.05.2017 07:00:00 14,6 11,4 11,3 20,6 15,9 4 2 8 4 NE 1022,0 20 23 0,0
25.05.2017 06:00:00 13,0 11,1 9,9 21,0 15,9 5 3 9 5 ENE 1022,0 20 0 0,0
25.05.2017 05:00:00 13,3 11,0 10,7 21,4 15,9 4 2 7 4 ESE 1022,2 20 0 0,0
25.05.2017 04:00:00 14,8 11,2 13,4 21,7 15,9 5 3 9 5 N 1021,8 20 0 0,0
25.05.2017 03:00:00 15,1 11,1 13,4 22,1 15,8 5 3 14 8 N 1021,9 20 0 0,0
25.05.2017 02:00:00 16,4 11,5 12,1 22,6 15,8 10 5 14 8 N 1022,1 20 0 0,0
25.05.2017 01:00:00 15,7 11,3 12,6 23,0 15,8 4 2 9 5 NE 1022,8 20 0 0,0
25.05.2017 00:00:00 15,2 11,0 12,7 23,4 15,8 0 0 8 4 N 1023,0 20 0 0,0
24.05.2017 23:00:00 18,0 11,1 14,8 23,9 15,8 6 3 10 5 NNE 1022,9 20 0 0,0
24.05.2017 22:00:00 18,0 10,6 14,6 24,3 15,7 4 2 11 6 NE 1022,7 20 0 0,0
24.05.2017 21:00:00 20,7 10,5 19,6 24,6 15,7 6 3 19 10 NNE 1022,1 20 24 0,0
24.05.2017 20:00:00 22,2 10,0 22,7 24,8 15,7 11 6 24 13 NE 1021,8 20 54 0,0
24.05.2017 19:00:00 23,1 10,5 25,1 24,8 15,7 12 6 26 14 NE 1021,4 20 60 0,0
24.05.2017 18:00:00 23,6 9,9 27,4 24,5 15,7 15 8 26 14 NE 1021,6 20 60 0,0
24.05.2017 17:00:00 23,6 9,9 28,7 24,0 15,6 16 9 27 15 NE 1021,9 20 60 0,0
24.05.2017 16:00:00 24,0 11,0 29,5 23,3 15,6 14 7 28 15 NE 1022,1 20 60 0,0
24.05.2017 15:00:00 23,6 10,3 29,4 22,6 15,6 10 5 23 12 NE 1022,5 20 60 0,0
24.05.2017 14:00:00 22,5 9,6 27,7 21,7 15,6 13 7 24 13 NE 1023,1 20 60 0,0
24.05.2017 13:00:00 21,7 9,6 25,8 20,9 15,6 14 7 25 13 NNE 1023,9 20 60 0,0
24.05.2017 12:00:00 20,9 9,2 23,1 20,2 15,6 13 7 39 21 NE 1024,4 20 60 0,0
24.05.2017 11:00:00 20,0 9,0 21,2 19,8 15,5 11 6 22 12 NNE 1024,7 20 60 0,0
24.05.2017 10:00:00 18,9 7,9 19,8 19,6 15,5 11 6 23 12 N 1025,0 20 60 0,0
24.05.2017 09:00:00 18,1 9,7 18,6 19,6 15,5 12 7 20 11 N 1024,8 20 60 0,0
24.05.2017 08:00:00 16,9 9,6 15,3 19,8 15,5 5 3 12 6 NE 1024,7 20 58 0,0
24.05.2017 07:00:00 14,6 10,4 14,4 20,1 15,5 3 2 13 7 ESE 1024,8 20 9 0,0
24.05.2017 06:00:00 15,3 9,6 14,4 20,4 15,4 7 4 19 11 NNE 1023,9 20 0 0,0
24.05.2017 05:00:00 16,0 11,2 14,9 20,8 15,4 7 4 16 9 NNE 1023,7 20 0 0,0
24.05.2017 04:00:00 15,7 11,7 11,6 21,2 15,4 7 4 12 7 NNE 1023,1 20 0 0,0
24.05.2017 03:00:00 16,1 11,5 13,0 21,6 15,4 4 2 14 7 N 1022,8 20 0 0,0
24.05.2017 02:00:00 17,6 11,4 16,3 21,9 15,4 7 4 20 11 N 1022,5 20 0 0,0
24.05.2017 01:00:00 17,7 11,3 17,0 22,3 15,4 12 7 22 12 N 1022,3 20 0 0,0
24.05.2017 00:00:00 19,4 11,4 18,6 22,7 15,4 11 6 22 12 N 1021,8 20 0 0,0
23.05.2017 23:00:00 20,2 12,7 19,3 23,2 15,3 10 5 18 10 N 1021,4 20 0 0,0
23.05.2017 22:00:00 21,1 13,0 20,0 23,5 15,3 9 5 17 9 NNW 1020,5 20 0 0,0
23.05.2017 21:00:00 23,1 12,7 22,2 23,7 15,3 7 4 23 12 NNW 1019,5 20 44 0,0
23.05.2017 20:00:00 24,7 12,0 24,7 23,8 15,3 11 6 24 13 NW 1019,1 20 32 0,0
23.05.2017 19:00:00 26,1 11,8 26,4 23,8 15,3 14 8 27 14 WNW 1018,4 20 43 0,0
23.05.2017 18:00:00 25,7 11,5 26,4 23,6 15,3 16 9 28 15 NNW 1018,6 20 12 0,0
23.05.2017 17:00:00 27,4 10,1 29,0 23,2 15,3 19 10 - - NNW 1018,0 20 46 0,0
23.05.2017 16:00:00 27,3 12,5 28,7 22,6 15,3 - - - - - 1017,7 20 35 0,0
23.05.2017 15:00:00 26,9 12,5 29,2 21,8 15,2 - - - - - 1017,5 20 29 0,0
23.05.2017 14:00:00 26,9 12,5 29,4 20,9 15,2 13 7 32 18 WSW 1017,8 20 60 0,0
23.05.2017 13:00:00 26,1 13,9 29,6 20,0 15,2 14 8 30 16 W 1018,3 20 60 0,0
23.05.2017 12:00:00 25,5 14,0 26,2 19,3 15,2 13 7 22 12 WSW 1018,5 20 56 0,0
23.05.2017 11:00:00 24,2 13,1 25,8 18,7 15,2 14 8 22 12 WSW 1018,7 20 58 0,0
23.05.2017 10:00:00 23,2 14,2 21,0 18,3 15,2 7 4 16 9 WSW 1018,6 20 60 0,0
23.05.2017 09:00:00 19,2 12,5 16,9 18,3 15,2 11 6 20 11 SW 1019,0 20 60 0,0
23.05.2017 08:00:00 16,0 11,8 15,2 18,5 15,2 10 5 18 10 SW 1018,8 20 24 0,0
23.05.2017 07:00:00 14,9 11,5 13,2 18,7 15,1 10 6 18 10 SW 1018,3 20 50 0,0
23.05.2017 06:00:00 14,1 11,3 12,8 19,0 15,1 8 4 15 8 SW 1018,0 20 0 0,0
23.05.2017 05:00:00 14,3 11,1 11,4 19,4 15,1 8 5 15 8 SW 1018,0 20 0 0,0
23.05.2017 04:00:00 13,3 10,7 11,3 19,8 15,1 5 3 12 6 SSW 1017,8 20 0 0,0
23.05.2017 03:00:00 12,6 10,5 10,5 20,2 15,1 6 3 10 5 SSW 1017,8 20 0 0,0
23.05.2017 02:00:00 13,5 11,0 11,0 20,6 15,1 4 2 8 4 SW 1017,6 20 0 0,0
23.05.2017 01:00:00 13,5 11,4 10,8 21,0 15,1 6 3 9 5 WSW 1017,7 20 0 0,0
23.05.2017 00:00:00 14,5 11,8 11,4 21,5 15,1 5 3 7 4 SW 1017,3 20 0 0,0
22.05.2017 23:00:00 15,5 11,5 11,8 21,9 15,0 4 2 6 3 N 1016,8 20 0 0,0
22.05.2017 22:00:00 18,8 11,6 13,8 22,3 15,1 4 2 7 4 N 1016,2 20 0 0,0
22.05.2017 21:00:00 21,6 11,3 19,4 22,6 15,1 5 3 10 6 NNE 1015,3 20 0 0,0
22.05.2017 20:00:00 24,1 10,7 24,1 22,7 15,1 6 4 13 7 NNE 1014,9 20 48 0,0
22.05.2017 19:00:00 25,2 10,6 28,1 22,6 15,0 9 5 18 10 NNE 1014,7 20 58 0,0
22.05.2017 18:00:00 25,5 10,5 29,3 22,2 15,0 9 5 20 11 NNE 1014,9 20 60 0,0
22.05.2017 17:00:00 25,6 10,6 31,2 21,5 15,0 6 3 15 8 N 1015,2 20 60 0,0
22.05.2017 16:00:00 25,4 10,4 30,5 20,6 15,0 5 3 16 9 NNE 1015,7 19 60 0,0
22.05.2017 15:00:00 24,6 10,5 30,2 19,6 15,0 3 2 14 7 NNE 1016,4 20 60 0,0
22.05.2017 14:00:00 23,5 10,5 28,3 18,6 15,0 6 3 14 8 NW 1017,0 20 60 0,0
22.05.2017 13:00:00 22,0 10,8 26,7 17,6 15,0 7 4 21 11 E 1017,5 20 60 0,0
22.05.2017 12:00:00 21,0 9,3 23,1 16,8 15,0 6 3 16 9 S 1018,2 20 60 0,0
22.05.2017 11:00:00 18,9 8,8 18,9 16,1 15,0 5 3 11 6 N 1018,8 20 60 0,0
22.05.2017 10:00:00 16,6 9,8 16,6 15,8 15,0 6 4 13 7 N 1019,3 20 60 0,0
22.05.2017 09:00:00 14,9 9,3 15,7 15,7 15,0 7 4 11 6 N 1019,4 20 60 0,0
22.05.2017 08:00:00 13,5 9,2 12,0 15,9 15,0 0 0 5 3 N 1019,8 20 60 0,0
22.05.2017 07:00:00 10,1 8,5 4,8 16,2 15,0 0 0 4 2 N 1020,0 20 50 0,0
22.05.2017 06:00:00 6,5 5,9 4,1 16,5 15,0 0 0 4 2 N 1020,1 20 0 0,0
22.05.2017 05:00:00 7,0 6,3 4,5 16,9 15,0 2 1 3 2 SSW 1020,0 20 0 0,0
22.05.2017 04:00:00 8,0 7,1 5,4 17,3 15,0 0 0 2 1 N 1020,1 20 0 0,0
22.05.2017 03:00:00 8,8 7,4 6,1 17,7 15,0 0 0 5 3 N 1020,3 20 0 0,0
22.05.2017 02:00:00 12,1 7,4 9,7 18,1 15,0 5 3 14 7 N 1020,1 20 0 0,0
22.05.2017 01:00:00 13,0 8,3 12,0 18,4 15,0 9 5 13 7 N 1020,5 20 0 0,0
22.05.2017 00:00:00 14,1 8,1 10,8 18,8 15,1 8 4 13 7 N 1020,8 20 0 0,0
21.05.2017 23:00:00 14,4 8,1 10,8 19,2 15,0 8 4 14 7 N 1021,1 20 0 0,0
21.05.2017 22:00:00 15,8 8,3 13,8 19,5 15,0 10 5 13 7 N 1020,9 20 0 0,0
21.05.2017 21:00:00 18,3 8,5 17,3 19,7 15,0 7 4 25 14 N 1020,9 20 43 0,0
21.05.2017 20:00:00 20,5 7,8 21,8 19,8 15,0 10 5 29 15 N 1020,9 20 60 0,0
21.05.2017 19:00:00 21,4 8,0 23,3 19,7 15,0 15 8 32 17 N 1020,8 20 60 0,0
21.05.2017 18:00:00 21,7 8,2 24,7 19,5 15,1 16 8 33 18 N 1021,2 20 60 0,0
21.05.2017 17:00:00 21,8 8,0 24,9 18,9 15,1 17 9 37 20 N 1021,7 20 60 0,0
21.05.2017 16:00:00 21,5 8,0 25,0 18,3 15,1 20 11 37 20 N 1022,3 20 60 0,0
21.05.2017 15:00:00 21,0 8,6 24,4 17,5 15,1 21 11 35 19 N 1022,9 20 60 0,0
21.05.2017 14:00:00 20,0 8,3 23,3 16,6 15,1 16 9 35 19 N 1023,9 20 60 0,0
21.05.2017 13:00:00 19,0 8,3 22,1 15,7 15,1 16 9 30 16 N 1024,9 20 60 0,0
21.05.2017 12:00:00 18,0 8,5 20,3 15,0 15,1 16 9 25 14 N 1025,7 20 60 0,0
21.05.2017 11:00:00 16,4 8,6 15,9 14,4 15,1 13 7 23 12 N 1026,2 20 60 0,0
21.05.2017 10:00:00 14,3 9,1 13,9 14,1 15,1 13 7 22 12 N 1026,7 20 60 0,0
21.05.2017 09:00:00 12,5 8,6 13,1 14,1 15,1 10 6 16 9 N 1027,3 20 60 0,0
21.05.2017 08:00:00 10,8 8,2 8,3 14,2 15,1 6 3 10 5 NNE 1027,3 20 60 0,0
21.05.2017 07:00:00 7,6 7,2 2,7 14,5 15,2 4 2 6 4 NNE 1027,5 20 49 0,0
21.05.2017 06:00:00 4,4 4,1 1,9 14,8 15,1 2 1 6 4 N 1027,5 12 0 0,0
21.05.2017 05:00:00 4,4 4,0 1,8 15,1 15,2 0 0 3 1 N 1027,6 11 0 0,0
21.05.2017 04:00:00 4,8 4,4 2,5 15,5 15,2 0 0 4 2 N 1027,7 2,8 0 0,0
21.05.2017 03:00:00 5,4 4,8 3,2 15,9 15,2 0 0 5 3 N 1027,6 1,6 0 0,0
21.05.2017 02:00:00 6,4 5,8 3,5 16,3 15,2 0 0 5 3 N 1027,5 18 0 0,0
21.05.2017 01:00:00 6,9 6,2 4,1 16,6 15,2 3 1 3 2 N 1027,6 19 0 0,0
21.05.2017 00:00:00 8,2 7,3 5,3 17,0 15,2 0 0 10 5 N 1027,3 20 0 0,0
20.05.2017 23:00:00 8,9 7,2 6,1 17,4 15,2 3 1 5 3 N 1026,9 20 0 0,0
20.05.2017 22:00:00 10,5 6,8 7,3 17,6 15,2 4 2 7 4 N 1026,4 20 0 0,0
20.05.2017 21:00:00 13,8 6,6 12,4 17,9 15,2 5 3 11 6 NNE 1025,5 20 11 0,0
20.05.2017 20:00:00 15,2 7,2 14,9 17,9 15,2 5 3 25 14 NNE 1025,1 20 24 0,0
20.05.2017 19:00:00 17,6 6,8 18,1 17,7 15,3 6 3 18 10 NNE 1024,4 20 31 0,0
20.05.2017 18:00:00 17,1 5,4 18,6 17,4 15,3 5 3 11 6 NNE 1024,0 20 7 0,0
20.05.2017 17:00:00 18,4 6,2 21,0 16,9 15,3 5 3 11 6 NNW 1023,7 20 39 0,0
20.05.2017 16:00:00 17,5 6,7 19,3 16,4 15,3 6 3 16 9 NNW 1023,6 20 14 0,0
20.05.2017 15:00:00 17,1 5,4 19,7 15,7 15,3 6 4 23 13 SW 1023,4 20 35 0,0
20.05.2017 14:00:00 16,3 5,3 16,9 15,2 15,3 7 4 21 11 W 1023,3 20 7 0,0
20.05.2017 13:00:00 15,5 7,3 17,3 14,6 15,3 13 7 26 14 WSW 1023,5 20 31 0,0
20.05.2017 12:00:00 14,2 7,7 15,2 14,3 15,4 17 9 26 14 WSW 1023,5 20 0 0,0
20.05.2017 11:00:00 13,3 7,9 14,3 13,9 15,3 16 8 28 15 WNW 1023,2 20 2 0,0
20.05.2017 10:00:00 13,9 8,1 11,4 13,7 15,4 20 11 34 19 SW 1022,9 20 57 0,0
20.05.2017 09:00:00 11,1 8,0 8,8 13,7 15,4 12 6 20 11 SW 1022,5 20 7 0,0
20.05.2017 08:00:00 8,5 6,8 8,0 13,8 15,4 9 5 18 10 SW 1022,4 20 16 0,0
20.05.2017 07:00:00 7,0 6,6 4,7 14,1 15,4 8 5 15 8 SW 1021,6 20 44 0,0
20.05.2017 06:00:00 5,4 5,0 4,3 14,3 15,4 6 3 11 6 WSW 1021,1 20 0 0,0
20.05.2017 05:00:00 5,7 5,1 4,9 14,6 15,4 8 4 14 8 WSW 1020,9 19 0 0,0
20.05.2017 04:00:00 6,6 6,0 3,8 14,9 15,4 9 5 14 8 SW 1020,9 20 0 0,0
20.05.2017 03:00:00 6,1 5,7 3,7 15,2 15,4 4 2 9 5 WNW 1020,8 20 0 0,0
20.05.2017 02:00:00 6,5 5,8 5,7 15,5 15,4 7 4 12 7 W 1020,9 20 0 0,0
20.05.2017 01:00:00 7,1 6,4 6,0 15,8 15,4 8 5 11 6 W 1020,8 20 0 0,0
20.05.2017 00:00:00 7,9 7,0 6,1 16,1 15,4 7 4 14 8 NW 1020,6 20 0 0,0
19.05.2017 23:00:00 8,7 7,1 7,5 16,4 15,4 6 3 19 10 SW 1020,2 20 0 0,0
19.05.2017 22:00:00 9,6 7,5 8,8 16,7 15,4 9 5 19 11 SSW 1019,8 20 0 0,0
19.05.2017 21:00:00 10,4 8,2 9,9 17,0 15,4 9 5 26 14 SSW 1019,0 20 35 0,0
19.05.2017 20:00:00 11,4 7,7 11,6 17,1 15,4 12 6 31 17 SW 1018,8 20 0 0,0
19.05.2017 19:00:00 11,5 7,8 12,2 17,2 15,3 18 10 34 18 SW 1018,5 20 5 0,0
19.05.2017 18:00:00 11,6 8,3 12,3 17,2 15,3 20 11 38 21 SW 1018,5 20 19 0,0
19.05.2017 17:00:00 11,6 8,4 9,7 17,2 15,3 19 11 29 16 WSW 1018,0 20 14 0,0
19.05.2017 16:00:00 9,7 8,5 9,5 17,4 15,3 17 9 27 15 WSW 1018,2 20 0 2,0
19.05.2017 15:00:00 10,2 8,5 9,9 17,5 15,3 18 10 31 17 WSW 1017,3 20 0 0,6
19.05.2017 14:00:00 11,9 10,0 11,4 17,5 15,3 18 10 31 17 WSW 1015,8 20 0 0,2
19.05.2017 13:00:00 13,5 11,4 12,2 17,5 15,3 17 9 29 16 WSW 1014,7 20 0 0,8
19.05.2017 12:00:00 12,6 11,2 12,0 17,5 15,3 15 8 23 12 WSW 1014,0 20 0 2,0
19.05.2017 11:00:00 - - - - - 5 3 - - WSW - 5 - -
19.05.2017 10:00:00 - - - - - - - - - - - - - -
19.05.2017 09:00:00 - - - - - - - - - - - - - -
19.05.2017 08:00:00 - - - - - - - - - - - - - -

tt = Température de l'air
td = dewpoint
tt 5cm = Température de l'air 5cm
tt -20cm = Température de l'air -20cm
tt -100cm = Température de l'air -100cm
ff = Vitesse du vent
fx = gusts
dd = Direction du vent
ppp = reduced air pressure
vv = visibility
sd = Ensoleillement
rr = Quantités de précipitations

stations d'obs. à proximité